| time (UTC) | temp F | wind direction | speed MPH | gust MPH | rain 1hr in | rain 24hr in | rain mn in | humidity % | barometer mb |
| 20260903152048 | 71 | 236 | 1.0 | 3.0 | 0.00 | 0.12 | 0.12 | 90 | 1014.3 |
| 20260903151536 | 71 | 184 | 1.0 | 3.0 | 0.00 | 0.12 | 0.12 | 90 | 1014.1 |
| 20260903151039 | 70 | 219 | 0.0 | 2.0 | 0.00 | 0.12 | 0.12 | 91 | 1014.1 |
| 20260903150558 | 70 | 346 | 1.0 | 2.0 | 0.00 | 0.12 | 0.12 | 92 | 1014.2 |
| 20260903150041 | 70 | 347 | 0.0 | 3.0 | 0.00 | 0.12 | 0.12 | 92 | 1014.1 |
| 20260903145605 | 70 | 355 | 0.0 | 3.0 | 0.00 | 0.12 | 0.12 | 93 | 1014.1 |
| 20260903145118 | 70 | 355 | 1.0 | 3.0 | 0.00 | 0.12 | 0.12 | 94 | 1014.3 |
| 20260903144559 | 69 | 279 | 1.0 | 2.0 | 0.00 | 0.12 | 0.12 | 95 | 1014.2 |
| 20260903144027 | 69 | 312 | 0.0 | 3.0 | 0.00 | 0.12 | 0.12 | 94 | 1014.1 |
| 20260903143549 | 69 | 284 | 0.0 | 1.0 | 0.00 | 0.12 | 0.12 | 96 | 1014.2 |
| 20260903143030 | 68 | 286 | 0.0 | 1.0 | 0.00 | 0.12 | 0.12 | 95 | 1014.2 |
| 20260903142553 | 68 | 286 | 0.0 | 1.0 | 0.00 | 0.12 | 0.12 | 96 | 1014.1 |
| 20260903142031 | 68 | 291 | 0.0 | 1.0 | 0.00 | 0.12 | 0.12 | 96 | 1014.1 |
| 20260903141534 | 68 | 291 | 0.0 | 1.0 | 0.00 | 0.12 | 0.12 | 96 | 1014.2 |
| 20260903141050 | 67 | 294 | 0.0 | 1.0 | 0.00 | 0.12 | 0.12 | 96 | 1014.1 |
| 20260903140553 | 67 | 293 | 0.0 | 1.0 | 0.00 | 0.12 | 0.12 | 97 | 1014.1 |
| 20260903140100 | 67 | 306 | 0.0 | 2.0 | 0.00 | 0.12 | 0.12 | 97 | 1014.2 |
| 20260903135541 | 67 | 306 | 0.0 | 2.0 | 0.01 | 0.12 | 0.12 | 97 | 1014.3 |
| 20260903135047 | 67 | 338 | 0.0 | 2.0 | 0.01 | 0.12 | 0.12 | 97 | 1014.2 |
| 20260903134550 | 67 | 31 | 0.0 | 2.0 | 0.01 | 0.12 | 0.12 | 97 | 1014.3 |
| 20260903134054 | 67 | 101 | 0.0 | 2.0 | 0.01 | 0.12 | 0.12 | 97 | 1014.1 |
| 20260903133541 | 66 | 244 | 0.0 | 1.0 | 0.01 | 0.12 | 0.12 | 97 | 1014.3 |
| 20260903133026 | 66 | 244 | 0.0 | 1.0 | 0.01 | 0.12 | 0.12 | 97 | 1014.3 |
| 20260903132532 | 66 | 244 | 0.0 | 1.0 | 0.01 | 0.12 | 0.12 | 97 | 1014.3 |
| 20260903132035 | 66 | 244 | 0.0 | 1.0 | 0.01 | 0.12 | 0.12 | 97 | 1014.4 |
| 20260903131537 | 66 | 302 | 0.0 | 1.0 | 0.01 | 0.12 | 0.12 | 97 | 1014.4 |
| 20260903131115 | 66 | 305 | 0.0 | 1.0 | 0.01 | 0.12 | 0.12 | 97 | 1014.4 |
| 20260903130526 | 65 | 312 | 0.0 | 0.0 | 0.01 | 0.12 | 0.12 | 97 | 1014.4 |
| 20260903130027 | 65 | 316 | 0.0 | 0.0 | 0.00 | 0.12 | 0.11 | 97 | 1014.7 |
| 20260903125548 | 65 | 318 | 0.0 | 0.0 | 0.00 | 0.12 | 0.11 | 97 | 1014.6 |
| 20260903125050 | 65 | 318 | 0.0 | 0.0 | 0.00 | 0.12 | 0.11 | 97 | 1014.7 |
| 20260903124548 | 65 | 318 | 0.0 | 0.0 | 0.00 | 0.12 | 0.11 | 97 | 1014.7 |
| 20260903124031 | 65 | 318 | 0.0 | 0.0 | 0.00 | 0.12 | 0.11 | 97 | 1014.8 |
| 20260903123534 | 64 | 318 | 0.0 | 0.0 | 0.00 | 0.12 | 0.11 | 97 | 1014.9 |
| 20260903123036 | 64 | 318 | 0.0 | 0.0 | 0.00 | 0.12 | 0.11 | 97 | 1014.9 |
| 20260903122527 | 64 | 318 | 0.0 | 0.0 | 0.00 | 0.12 | 0.11 | 97 | 1015.0 |
| 20260903122030 | 64 | 316 | 0.0 | 0.0 | 0.00 | 0.12 | 0.11 | 97 | 1015.0 |
| 20260903121553 | 64 | 316 | 0.0 | 1.0 | 0.00 | 0.12 | 0.11 | 97 | 1014.9 |
| 20260903121035 | 64 | 317 | 0.0 | 1.0 | 0.00 | 0.12 | 0.11 | 97 | 1015.0 |
| 20260903120540 | 64 | 317 | 0.0 | 2.0 | 0.00 | 0.12 | 0.11 | 97 | 1015.1 |
| 20260903120112 | 64 | 317 | 1.0 | 2.0 | 0.00 | 0.12 | 0.11 | 97 | 1015.1 |
| 20260903115540 | 64 | 317 | 0.0 | 1.0 | 0.00 | 0.12 | 0.11 | 97 | 1015.0 |
| 20260903115044 | 64 | 317 | 0.0 | 1.0 | 0.00 | 0.12 | 0.11 | 97 | 1015.2 |
| 20260903114549 | 64 | 317 | 0.0 | 2.0 | 0.00 | 0.12 | 0.11 | 97 | 1015.2 |
| 20260903114031 | 64 | 317 | 0.0 | 2.0 | 0.00 | 0.12 | 0.11 | 97 | 1015.3 |
| 20260903113538 | 64 | 57 | 1.0 | 2.0 | 0.00 | 0.12 | 0.11 | 97 | 1015.2 |
| 20260903113036 | 64 | 57 | 0.0 | 2.0 | 0.00 | 0.12 | 0.11 | 97 | 1015.2 |
| 20260903112524 | 63 | 317 | 0.0 | 2.0 | 0.00 | 0.12 | 0.11 | 97 | 1015.3 |
| 20260903112030 | 63 | 317 | 1.0 | 2.0 | 0.00 | 0.12 | 0.11 | 97 | 1015.4 |
| 20260903111533 | 63 | 317 | 0.0 | 1.0 | 0.00 | 0.12 | 0.11 | 97 | 1015.3 |
| 20260903111036 | 63 | 317 | 0.0 | 2.0 | 0.00 | 0.12 | 0.11 | 97 | 1015.3 |
| 20260903110540 | 63 | 317 | 1.0 | 2.0 | 0.00 | 0.12 | 0.11 | 97 | 1015.3 |
| 20260903110056 | 63 | 317 | 0.0 | 2.0 | 0.00 | 0.12 | 0.11 | 97 | 1015.2 |
| 20260903105554 | 63 | 317 | 0.0 | 2.0 | 0.00 | 0.12 | 0.11 | 97 | 1015.2 |
| 20260903105036 | 63 | 238 | 0.0 | 1.0 | 0.00 | 0.12 | 0.11 | 97 | 1015.4 |
| 20260903104539 | 63 | 238 | 0.0 | 1.0 | 0.00 | 0.12 | 0.11 | 97 | 1015.3 |
| 20260903104042 | 63 | 238 | 0.0 | 1.0 | 0.00 | 0.12 | 0.11 | 97 | 1015.2 |
| 20260903103529 | 63 | 238 | 0.0 | 1.0 | 0.00 | 0.12 | 0.11 | 97 | 1015.1 |
| 20260903103031 | 63 | 238 | 0.0 | 1.0 | 0.00 | 0.12 | 0.11 | 97 | 1014.9 |
| 20260903102534 | 63 | 238 | 0.0 | 2.0 | 0.00 | 0.12 | 0.11 | 97 | 1014.9 |
| 20260903102036 | 62 | 238 | 1.0 | 2.0 | 0.00 | 0.12 | 0.11 | 97 | 1015.0 |
| 20260903101539 | 62 | 10 | 0.0 | 2.0 | 0.00 | 0.12 | 0.11 | 97 | 1014.9 |
| 20260903101042 | 62 | 10 | 0.0 | 2.0 | 0.00 | 0.12 | 0.11 | 97 | 1015.0 |
| 20260903100529 | 62 | 9 | 0.0 | 2.0 | 0.00 | 0.12 | 0.11 | 97 | 1015.1 |
| 20260903100029 | 61 | 9 | 0.0 | 2.0 | 0.00 | 0.12 | 0.11 | 97 | 1014.9 |
| 20260903095536 | 62 | 13 | 0.0 | 2.0 | 0.00 | 0.12 | 0.11 | 97 | 1014.8 |
| 20260903095116 | 61 | 258 | 0.0 | 2.0 | 0.00 | 0.12 | 0.11 | 97 | 1014.9 |
| 20260903094532 | 61 | 258 | 0.0 | 1.0 | 0.00 | 0.12 | 0.11 | 97 | 1014.8 |
| 20260903094055 | 61 | 258 | 0.0 | 1.0 | 0.00 | 0.12 | 0.11 | 97 | 1014.8 |
| 20260903093542 | 61 | 258 | 0.0 | 1.0 | 0.00 | 0.12 | 0.11 | 97 | 1014.9 |
| 20260903093046 | 61 | 355 | 0.0 | 1.0 | 0.00 | 0.12 | 0.11 | 97 | 1014.9 |
| 20260903092531 | 61 | 355 | 0.0 | 1.0 | 0.00 | 0.12 | 0.11 | 97 | 1015.0 |
| 20260903092051 | 61 | 355 | 0.0 | 0.0 | 0.00 | 0.12 | 0.11 | 96 | 1015.0 |
| 20260903091549 | 61 | 355 | 0.0 | 0.0 | 0.00 | 0.12 | 0.11 | 96 | 1015.1 |
| 20260903091052 | 61 | 355 | 0.0 | 0.0 | 0.00 | 0.12 | 0.11 | 96 | 1015.1 |
| 20260903090555 | 61 | 355 | 0.0 | 0.0 | 0.00 | 0.12 | 0.11 | 96 | 1015.0 |
| 20260903090036 | 61 | 355 | 0.0 | 0.0 | 0.00 | 0.12 | 0.11 | 96 | 1015.1 |
| 20260903085539 | 61 | 355 | 0.0 | 0.0 | 0.00 | 0.12 | 0.11 | 96 | 1015.1 |
| 20260903085042 | 61 | 355 | 0.0 | 0.0 | 0.00 | 0.12 | 0.11 | 96 | 1015.1 |
| 20260903084528 | 61 | 355 | 0.0 | 0.0 | 0.00 | 0.12 | 0.11 | 96 | 1015.2 |
| 20260903084034 | 61 | 355 | 0.0 | 0.0 | 0.00 | 0.12 | 0.11 | 96 | 1015.4 |
| 20260903083557 | 61 | 355 | 0.0 | 0.0 | 0.00 | 0.12 | 0.11 | 96 | 1015.4 |
| 20260903083040 | 61 | 355 | 0.0 | 0.0 | 0.00 | 0.12 | 0.11 | 96 | 1015.5 |
| 20260903082617 | 61 | 355 | 0.0 | 0.0 | 0.00 | 0.12 | 0.11 | 96 | 1015.5 |
| 20260903082039 | 61 | 355 | 0.0 | 0.0 | 0.00 | 0.12 | 0.11 | 96 | 1015.6 |
| 20260903081545 | 61 | 355 | 0.0 | 0.0 | 0.00 | 0.12 | 0.11 | 96 | 1015.6 |
| 20260903081027 | 61 | 355 | 0.0 | 0.0 | 0.00 | 0.12 | 0.11 | 96 | 1015.5 |
| 20260903080550 | 61 | 355 | 0.0 | 0.0 | 0.00 | 0.12 | 0.11 | 96 | 1015.5 |
| 20260903080033 | 61 | 355 | 0.0 | 0.0 | 0.00 | 0.12 | 0.11 | 97 | 1015.3 |
| 20260903075551 | 61 | 355 | 0.0 | 0.0 | 0.00 | 0.12 | 0.11 | 96 | 1015.3 |
| 20260903075051 | 61 | 355 | 0.0 | 0.0 | 0.00 | 0.12 | 0.11 | 96 | 1015.4 |
| 20260903074524 | 61 | 355 | 0.0 | 0.0 | 0.00 | 0.12 | 0.11 | 96 | 1015.4 |
| 20260903074042 | 61 | 355 | 0.0 | 0.0 | 0.00 | 0.12 | 0.11 | 96 | 1015.5 |
| 20260903073601 | 61 | 355 | 0.0 | 0.0 | 0.00 | 0.12 | 0.11 | 96 | 1015.6 |
| 20260903073042 | 60 | 355 | 0.0 | 1.0 | 0.00 | 0.12 | 0.11 | 96 | 1015.7 |
| 20260903072528 | 60 | 355 | 0.0 | 1.0 | 0.00 | 0.12 | 0.11 | 96 | 1015.5 |
| 20260903072054 | 61 | 355 | 0.0 | 1.0 | 0.00 | 0.12 | 0.11 | 96 | 1015.5 |
| 20260903071536 | 60 | 355 | 0.0 | 1.0 | 0.00 | 0.12 | 0.11 | 96 | 1015.6 |
| 20260903071025 | 60 | 355 | 0.0 | 0.0 | 0.00 | 0.12 | 0.11 | 96 | 1015.6 |
| 20260903070529 | 60 | 355 | 0.0 | 0.0 | 0.00 | 0.12 | 0.11 | 96 | 1015.6 |
| 20260903070026 | 60 | 355 | 0.0 | 0.0 | 0.00 | 0.12 | 0.11 | 96 | 1015.6 |
| 20260903065544 | 60 | 355 | 0.0 | 0.0 | 0.00 | 0.12 | 0.11 | 96 | 1015.7 |
| 20260903065046 | 60 | 355 | 0.0 | 1.0 | 0.01 | 0.12 | 0.11 | 96 | 1015.6 |
| 20260903064549 | 60 | 355 | 0.0 | 1.0 | 0.01 | 0.12 | 0.11 | 96 | 1015.5 |
| 20260903064032 | 60 | 355 | 0.0 | 1.0 | 0.01 | 0.12 | 0.11 | 96 | 1015.5 |
| 20260903063557 | 60 | 355 | 0.0 | 0.0 | 0.02 | 0.12 | 0.11 | 96 | 1015.4 |
| 20260903063031 | 60 | 355 | 0.0 | 0.0 | 0.04 | 0.12 | 0.11 | 96 | 1015.6 |
| 20260903062534 | 60 | 355 | 0.0 | 0.0 | 0.05 | 0.12 | 0.11 | 96 | 1015.6 |
| 20260903062037 | 60 | 355 | 0.0 | 0.0 | 0.05 | 0.12 | 0.11 | 96 | 1015.8 |
| 20260903061540 | 60 | 355 | 0.0 | 0.0 | 0.06 | 0.12 | 0.11 | 96 | 1015.8 |
| 20260903061058 | 60 | 355 | 0.0 | 0.0 | 0.06 | 0.12 | 0.11 | 96 | 1015.9 |
| 20260903060526 | 60 | 355 | 0.0 | 0.0 | 0.07 | 0.12 | 0.11 | 96 | 1016.2 |
| 20260903060106 | 60 | 355 | 0.0 | 1.0 | 0.08 | 0.12 | 0.11 | 96 | 1016.1 |
| 20260903055527 | 60 | 355 | 0.0 | 1.0 | 0.09 | 0.12 | 0.11 | 96 | 1016.3 |
| 20260903055033 | 60 | 355 | 0.0 | 1.0 | 0.08 | 0.11 | 0.10 | 96 | 1016.5 |
| 20260903054536 | 60 | 355 | 0.0 | 0.0 | 0.09 | 0.11 | 0.10 | 96 | 1016.6 |
| 20260903054103 | 60 | 355 | 0.0 | 0.0 | 0.10 | 0.11 | 0.10 | 96 | 1016.9 |
| 20260903053528 | 60 | 355 | 0.0 | 0.0 | 0.09 | 0.10 | 0.09 | 96 | 1017.1 |
| 20260903053030 | 60 | 355 | 0.0 | 0.0 | 0.07 | 0.08 | 0.07 | 96 | 1017.1 |
| 20260903052534 | 60 | 355 | 0.0 | 0.0 | 0.06 | 0.07 | 0.06 | 96 | 1017.1 |
| 20260903052032 | 60 | 355 | 0.0 | 0.0 | 0.06 | 0.07 | 0.06 | 96 | 1017.1 |
| 20260903051550 | 60 | 355 | 0.0 | 0.0 | 0.05 | 0.06 | 0.05 | 95 | 1017.4 |
| 20260903051051 | 60 | 355 | 0.0 | 0.0 | 0.05 | 0.06 | 0.05 | 95 | 1017.5 |
| 20260903050556 | 60 | 355 | 0.0 | 0.0 | 0.04 | 0.05 | 0.04 | 95 | 1017.7 |
| 20260903050058 | 60 | 355 | 0.0 | 1.0 | 0.03 | 0.04 | 0.03 | 95 | 1017.8 |
| 20260903045540 | 60 | 355 | 0.0 | 1.0 | 0.02 | 0.03 | 0.02 | 95 | 1017.9 |
| 20260903045039 | 60 | 9 | 0.0 | 0.0 | 0.02 | 0.03 | 0.02 | 95 | 1017.9 |
| 20260903044525 | 60 | 9 | 0.0 | 0.0 | 0.01 | 0.02 | 0.01 | 95 | 1018.1 |
| 20260903044027 | 60 | 9 | 0.0 | 1.0 | 0.00 | 0.01 | 0.00 | 95 | 1018.2 |
| 20260903043532 | 60 | 9 | 0.0 | 1.0 | 0.00 | 0.01 | 0.00 | 94 | 1018.1 |
| 20260903043033 | 60 | 9 | 0.0 | 1.0 | 0.00 | 0.01 | 0.00 | 94 | 1018.1 |
| 20260903042536 | 60 | 9 | 0.0 | 1.0 | 0.00 | 0.01 | 0.00 | 94 | 1018.1 |
| 20260903042058 | 60 | 9 | 0.0 | 1.0 | 0.00 | 0.01 | 0.00 | 93 | 1018.2 |
| 20260903041534 | 60 | 9 | 0.0 | 2.0 | 0.00 | 0.01 | 0.00 | 93 | 1018.1 |
| 20260903041037 | 60 | 9 | 0.0 | 2.0 | 0.00 | 0.01 | 0.00 | 93 | 1018.1 |
| 20260903040529 | 61 | 325 | 0.0 | 0.0 | 0.00 | 0.01 | 0.00 | 92 | 1018.2 |
| 20260903040029 | 61 | 325 | 0.0 | 1.0 | 0.00 | 0.01 | 0.01 | 92 | 1018.1 |
| 20260903035533 | 61 | 325 | 0.0 | 1.0 | 0.00 | 0.01 | 0.01 | 92 | 1018.1 |
| 20260903035039 | 61 | 281 | 0.0 | 0.0 | 0.00 | 0.01 | 0.01 | 92 | 1018.0 |
| 20260903034544 | 61 | 281 | 0.0 | 0.0 | 0.00 | 0.01 | 0.01 | 92 | 1018.1 |
| 20260903034042 | 61 | 281 | 0.0 | 0.0 | 0.00 | 0.01 | 0.01 | 92 | 1018.2 |
| 20260903033526 | 61 | 281 | 0.0 | 0.0 | 0.00 | 0.01 | 0.01 | 92 | 1018.3 |
| 20260903033034 | 61 | 281 | 0.0 | 0.0 | 0.00 | 0.01 | 0.01 | 92 | 1018.4 |
| 20260903032540 | 61 | 281 | 0.0 | 0.0 | 0.00 | 0.01 | 0.01 | 92 | 1018.2 |
| 20260903032058 | 61 | 281 | 0.0 | 0.0 | 0.00 | 0.01 | 0.01 | 92 | 1018.0 |
| 20260903031525 | 61 | 281 | 0.0 | 0.0 | 0.00 | 0.01 | 0.01 | 92 | 1017.9 |
| 20260903031031 | 61 | 281 | 0.0 | 0.0 | 0.00 | 0.01 | 0.01 | 92 | 1018.0 |
| 20260903030547 | 61 | 281 | 0.0 | 0.0 | 0.00 | 0.01 | 0.01 | 92 | 1017.9 |
| 20260903030052 | 61 | 281 | 0.0 | 0.0 | 0.00 | 0.01 | 0.01 | 92 | 1018.1 |
| 20260903025554 | 61 | 281 | 0.0 | 1.0 | 0.00 | 0.01 | 0.01 | 92 | 1018.1 |
| 20260903025039 | 61 | 261 | 0.0 | 0.0 | 0.00 | 0.01 | 0.01 | 93 | 1018.1 |
| 20260903024602 | 61 | 261 | 0.0 | 2.0 | 0.00 | 0.01 | 0.01 | 92 | 1018.2 |
| 20260903024119 | 61 | 261 | 0.0 | 2.0 | 0.00 | 0.01 | 0.01 | 92 | 1018.5 |
| 20260903023559 | 61 | 261 | 0.0 | 0.0 | 0.00 | 0.01 | 0.01 | 92 | 1018.7 |
| 20260903023043 | 61 | 260 | 0.0 | 0.0 | 0.00 | 0.01 | 0.01 | 92 | 1018.9 |
| 20260903022546 | 61 | 261 | 0.0 | 1.0 | 0.00 | 0.01 | 0.01 | 92 | 1019.1 |
| 20260903022029 | 61 | 261 | 0.0 | 1.0 | 0.00 | 0.01 | 0.01 | 92 | 1019.3 |
| 20260903021532 | 61 | 260 | 0.0 | 1.0 | 0.00 | 0.01 | 0.01 | 92 | 1019.3 |
| 20260903021035 | 61 | 260 | 0.0 | 1.0 | 0.00 | 0.01 | 0.01 | 91 | 1019.3 |
| 20260903020539 | 61 | 260 | 0.0 | 1.0 | 0.00 | 0.01 | 0.01 | 91 | 1019.3 |
| 20260903020024 | 61 | 261 | 0.0 | 0.0 | 0.00 | 0.01 | 0.01 | 91 | 1019.3 |
| 20260903015617 | 61 | 261 | 0.0 | 1.0 | 0.00 | 0.01 | 0.01 | 91 | 1019.6 |
| 20260903015026 | 61 | 261 | 0.0 | 2.0 | 0.00 | 0.01 | 0.01 | 91 | 1019.6 |
| 20260903014532 | 61 | 202 | 0.0 | 1.0 | 0.00 | 0.01 | 0.01 | 91 | 1019.7 |
| 20260903014053 | 61 | 202 | 0.0 | 1.0 | 0.00 | 0.01 | 0.01 | 91 | 1019.9 |
| 20260903013527 | 61 | 199 | 0.0 | 0.0 | 0.00 | 0.01 | 0.01 | 90 | 1019.7 |
| 20260903013032 | 61 | 199 | 0.0 | 0.0 | 0.00 | 0.01 | 0.01 | 90 | 1019.6 |
| 20260903012529 | 61 | 199 | 0.0 | 0.0 | 0.00 | 0.01 | 0.01 | 90 | 1019.7 |
| 20260903012053 | 61 | 199 | 0.0 | 1.0 | 0.00 | 0.01 | 0.01 | 90 | 1019.6 |
| 20260903011556 | 61 | 199 | 0.0 | 1.0 | 0.00 | 0.01 | 0.01 | 89 | 1019.6 |
| 20260903011038 | 61 | 199 | 0.0 | 1.0 | 0.00 | 0.01 | 0.01 | 90 | 1019.5 |
| 20260903010543 | 61 | 199 | 0.0 | 1.0 | 0.00 | 0.01 | 0.01 | 91 | 1019.4 |
| 20260903010044 | 61 | 257 | 0.0 | 3.0 | 0.00 | 0.01 | 0.01 | 91 | 1019.4 |
| 20260903005546 | 61 | 257 | 0.0 | 3.0 | 0.00 | 0.01 | 0.01 | 91 | 1019.3 |
| 20260903005027 | 61 | 310 | 0.0 | 3.0 | 0.00 | 0.01 | 0.01 | 91 | 1018.9 |
| 20260903004531 | 61 | 310 | 0.0 | 3.0 | 0.00 | 0.01 | 0.01 | 91 | 1018.8 |
| 20260903004049 | 61 | 324 | 0.0 | 1.0 | 0.00 | 0.01 | 0.01 | 92 | 1018.6 |
| 20260903003553 | 61 | 324 | 0.0 | 1.0 | 0.00 | 0.01 | 0.01 | 92 | 1018.6 |
| 20260903003026 | 61 | 324 | 0.0 | 1.0 | 0.00 | 0.01 | 0.01 | 91 | 1018.8 |
| 20260903002546 | 62 | 326 | 0.0 | 1.0 | 0.00 | 0.01 | 0.01 | 91 | 1018.7 |
| 20260903002052 | 62 | 326 | 0.0 | 1.0 | 0.00 | 0.01 | 0.01 | 91 | 1018.7 |
| 20260903001554 | 62 | 326 | 0.0 | 2.0 | 0.00 | 0.01 | 0.01 | 90 | 1018.9 |
| 20260903001036 | 62 | 290 | 0.0 | 2.0 | 0.00 | 0.01 | 0.01 | 91 | 1019.0 |
| 20260903000540 | 62 | 290 | 0.0 | 2.0 | 0.00 | 0.01 | 0.01 | 90 | 1019.0 |
| 20260903000045 | 62 | 293 | 0.0 | 1.0 | 0.00 | 0.02 | 0.01 | 90 | 1019.0 |
| 20260902235553 | 62 | 293 | 0.0 | 1.0 | 0.00 | 0.02 | 0.01 | 89 | 1019.0 |
| 20260902235038 | 62 | 293 | 0.0 | 1.0 | 0.00 | 0.02 | 0.01 | 89 | 1019.1 |
| 20260902234542 | 62 | 294 | 0.0 | 0.0 | 0.00 | 0.02 | 0.01 | 90 | 1019.0 |
| 20260902234041 | 62 | 294 | 0.0 | 2.0 | 0.00 | 0.02 | 0.01 | 90 | 1019.2 |
| 20260902233545 | 63 | 294 | 0.0 | 2.0 | 0.00 | 0.02 | 0.01 | 89 | 1019.2 |
| 20260902233026 | 63 | 312 | 0.0 | 1.0 | 0.00 | 0.02 | 0.01 | 88 | 1019.2 |
| 20260902232529 | 63 | 323 | 0.0 | 0.0 | 0.00 | 0.02 | 0.01 | 89 | 1019.1 |
| 20260902232114 | 63 | 323 | 0.0 | 0.0 | 0.00 | 0.02 | 0.01 | 88 | 1019.2 |
| 20260902231534 | 63 | 323 | 0.0 | 0.0 | 0.00 | 0.02 | 0.01 | 89 | 1019.2 |
| 20260902231040 | 63 | 323 | 0.0 | 2.0 | 0.00 | 0.02 | 0.01 | 90 | 1019.4 |
| 20260902230540 | 63 | 336 | 0.0 | 2.0 | 0.00 | 0.02 | 0.01 | 92 | 1019.6 |
| 20260902230045 | 63 | 335 | 0.0 | 1.0 | 0.00 | 0.02 | 0.01 | 92 | 1019.8 |
| 20260902225527 | 63 | 333 | 0.0 | 1.0 | 0.00 | 0.02 | 0.01 | 91 | 1019.9 |
| 20260902225030 | 63 | 333 | 0.0 | 1.0 | 0.00 | 0.02 | 0.01 | 92 | 1020.1 |
| 20260902224557 | 64 | 338 | 0.0 | 1.0 | 0.00 | 0.02 | 0.01 | 92 | 1020.2 |
| 20260902224042 | 63 | 338 | 0.0 | 1.0 | 0.00 | 0.02 | 0.01 | 92 | 1020.2 |
| 20260902223529 | 64 | 267 | 0.0 | 0.0 | 0.00 | 0.02 | 0.01 | 92 | 1020.3 |
| 20260902223105 | 64 | 267 | 0.0 | 0.0 | 0.00 | 0.02 | 0.01 | 92 | 1020.4 |
| 20260902222550 | 64 | 267 | 0.0 | 0.0 | 0.00 | 0.02 | 0.01 | 92 | 1020.3 |
| 20260902222052 | 64 | 267 | 0.0 | 0.0 | 0.00 | 0.02 | 0.01 | 91 | 1020.4 |
| 20260902221535 | 64 | 267 | 0.0 | 0.0 | 0.00 | 0.02 | 0.01 | 91 | 1020.4 |
| 20260902221038 | 64 | 267 | 0.0 | 0.0 | 0.00 | 0.02 | 0.01 | 91 | 1020.4 |
| 20260902220545 | 64 | 267 | 0.0 | 0.0 | 0.00 | 0.02 | 0.01 | 90 | 1020.6 |
| 20260902220046 | 64 | 267 | 0.0 | 0.0 | 0.00 | 0.03 | 0.01 | 90 | 1020.4 |
| 20260902215531 | 64 | 267 | 0.0 | 0.0 | 0.00 | 0.03 | 0.01 | 90 | 1020.4 |
| 20260902215034 | 64 | 267 | 0.0 | 0.0 | 0.00 | 0.03 | 0.01 | 90 | 1020.3 |
| 20260902214612 | 64 | 267 | 0.0 | 0.0 | 0.00 | 0.03 | 0.01 | 90 | 1020.2 |
| 20260902214054 | 64 | 267 | 0.0 | 0.0 | 0.00 | 0.03 | 0.01 | 90 | 1020.2 |
| 20260902213601 | 64 | 267 | 0.0 | 0.0 | 0.00 | 0.03 | 0.01 | 91 | 1020.0 |
| 20260902213025 | 64 | 267 | 0.0 | 1.0 | 0.00 | 0.03 | 0.01 | 91 | 1019.9 |
| 20260902212544 | 64 | 269 | 0.0 | 1.0 | 0.00 | 0.03 | 0.01 | 92 | 1020.1 |
| 20260902212027 | 64 | 269 | 0.0 | 0.0 | 0.00 | 0.03 | 0.01 | 91 | 1020.0 |
| 20260902211530 | 64 | 269 | 0.0 | 0.0 | 0.00 | 0.03 | 0.01 | 91 | 1020.1 |
| 20260902211032 | 64 | 269 | 0.0 | 1.0 | 0.00 | 0.03 | 0.01 | 91 | 1020.4 |
| 20260902210536 | 64 | 269 | 0.0 | 1.0 | 0.00 | 0.03 | 0.01 | 90 | 1020.3 |
| 20260902210037 | 64 | 268 | 0.0 | 0.0 | 0.00 | 0.03 | 0.01 | 89 | 1020.3 |
| 20260902205538 | 64 | 270 | 0.0 | 1.0 | 0.00 | 0.03 | 0.01 | 89 | 1020.4 |
| 20260902205059 | 64 | 270 | 0.0 | 1.0 | 0.00 | 0.03 | 0.01 | 89 | 1020.5 |
| 20260902204526 | 64 | 270 | 0.0 | 1.0 | 0.00 | 0.03 | 0.01 | 90 | 1020.3 |
| 20260902204028 | 64 | 270 | 0.0 | 1.0 | 0.00 | 0.03 | 0.01 | 91 | 1020.2 |
| 20260902203550 | 64 | 270 | 0.0 | 1.0 | 0.00 | 0.03 | 0.01 | 89 | 1020.1 |
| 20260902203052 | 64 | 270 | 0.0 | 1.0 | 0.00 | 0.03 | 0.01 | 90 | 1019.9 |
| 20260902202534 | 64 | 270 | 0.0 | 1.0 | 0.00 | 0.03 | 0.01 | 90 | 1019.9 |
| 20260902202033 | 64 | 270 | 0.0 | 0.0 | 0.00 | 0.03 | 0.01 | 90 | 1019.9 |
| 20260902201542 | 64 | 272 | 0.0 | 1.0 | 0.00 | 0.03 | 0.01 | 90 | 1020.0 |
| 20260902201047 | 64 | 272 | 0.0 | 1.0 | 0.00 | 0.03 | 0.01 | 88 | 1020.3 |
| 20260902200530 | 64 | 272 | 0.0 | 1.0 | 0.00 | 0.03 | 0.01 | 88 | 1020.4 |
| 20260902200034 | 64 | 272 | 0.0 | 1.0 | 0.00 | 0.06 | 0.01 | 88 | 1020.4 |
| 20260902195612 | 64 | 283 | 0.0 | 2.0 | 0.00 | 0.06 | 0.01 | 89 | 1020.4 |
| 20260902195036 | 64 | 329 | 1.0 | 2.0 | 0.00 | 0.06 | 0.01 | 89 | 1020.3 |
| 20260902194535 | 64 | 123 | 1.0 | 1.0 | 0.00 | 0.06 | 0.01 | 89 | 1020.2 |
| 20260902194038 | 64 | 122 | 0.0 | 2.0 | 0.00 | 0.06 | 0.01 | 89 | 1020.3 |
| 20260902193546 | 64 | 122 | 0.0 | 2.0 | 0.00 | 0.06 | 0.01 | 90 | 1020.4 |
| 20260902193030 | 63 | 38 | 0.0 | 2.0 | 0.00 | 0.06 | 0.01 | 90 | 1020.3 |
| 20260902192533 | 63 | 32 | 0.0 | 1.0 | 0.00 | 0.06 | 0.01 | 91 | 1020.5 |
| 20260902192040 | 63 | 32 | 0.0 | 0.0 | 0.00 | 0.06 | 0.01 | 91 | 1020.6 |
| 20260902191543 | 63 | 32 | 0.0 | 0.0 | 0.00 | 0.06 | 0.01 | 89 | 1020.7 |
| 20260902191042 | 63 | 32 | 0.0 | 0.0 | 0.00 | 0.06 | 0.01 | 90 | 1020.7 |
| 20260902190526 | 63 | 32 | 0.0 | 0.0 | 0.00 | 0.06 | 0.01 | 91 | 1020.8 |
| 20260902190026 | 63 | 32 | 0.0 | 0.0 | 0.00 | 0.09 | 0.01 | 90 | 1020.9 |
| 20260902185532 | 63 | 32 | 0.0 | 0.0 | 0.00 | 0.09 | 0.01 | 90 | 1021.1 |
| 20260902185039 | 63 | 32 | 0.0 | 0.0 | 0.00 | 0.09 | 0.01 | 91 | 1021.2 |
| 20260902184542 | 63 | 32 | 0.0 | 0.0 | 0.00 | 0.09 | 0.01 | 91 | 1021.2 |
| 20260902184025 | 63 | 32 | 0.0 | 0.0 | 0.00 | 0.09 | 0.01 | 89 | 1021.1 |
| 20260902183528 | 63 | 32 | 0.0 | 0.0 | 0.00 | 0.09 | 0.01 | 89 | 1020.9 |
| 20260902183033 | 64 | 32 | 0.0 | 0.0 | 0.00 | 0.09 | 0.01 | 89 | 1021.0 |
| 20260902182536 | 64 | 32 | 0.0 | 0.0 | 0.00 | 0.09 | 0.01 | 88 | 1020.9 |
| 20260902182054 | 64 | 32 | 0.0 | 2.0 | 0.00 | 0.09 | 0.01 | 88 | 1020.8 |
| 20260902181536 | 64 | 32 | 0.0 | 2.0 | 0.00 | 0.09 | 0.01 | 87 | 1020.9 |
| 20260902181042 | 64 | 70 | 0.0 | 1.0 | 0.00 | 0.09 | 0.01 | 88 | 1020.9 |
| 20260902180526 | 64 | 128 | 0.0 | 1.0 | 0.00 | 0.09 | 0.01 | 89 | 1020.7 |
| 20260902180027 | 64 | 126 | 0.0 | 2.0 | 0.00 | 0.09 | 0.01 | 88 | 1020.6 |
| 20260902175533 | 64 | 123 | 0.0 | 2.0 | 0.00 | 0.09 | 0.01 | 87 | 1020.4 |
| 20260902175036 | 64 | 84 | 0.0 | 2.0 | 0.00 | 0.09 | 0.01 | 87 | 1020.5 |
| 20260902174539 | 64 | 54 | 0.0 | 2.0 | 0.00 | 0.09 | 0.01 | 88 | 1020.7 |
| 20260902174042 | 64 | 5 | 0.0 | 2.0 | 0.00 | 0.09 | 0.01 | 89 | 1020.8 |
| 20260902173526 | 64 | 5 | 0.0 | 1.0 | 0.00 | 0.09 | 0.01 | 88 | 1020.8 |
| 20260902173030 | 64 | 5 | 0.0 | 1.0 | 0.00 | 0.09 | 0.01 | 88 | 1020.9 |
| 20260902172532 | 63 | 344 | 0.0 | 1.0 | 0.00 | 0.09 | 0.01 | 87 | 1021.0 |
| 20260902172041 | 63 | 179 | 0.0 | 1.0 | 0.00 | 0.09 | 0.01 | 87 | 1021.1 |
| 20260902171544 | 63 | 120 | 0.0 | 2.0 | 0.00 | 0.09 | 0.01 | 85 | 1021.1 |
| 20260902171028 | 63 | 112 | 0.0 | 2.0 | 0.00 | 0.09 | 0.01 | 87 | 1021.3 |
| 20260902170534 | 63 | 252 | 0.0 | 1.0 | 0.00 | 0.09 | 0.01 | 87 | 1021.3 |
| 20260902170035 | 63 | 318 | 0.0 | 1.0 | 0.00 | 0.36 | 0.01 | 89 | 1021.3 |
| 20260902165553 | 63 | 318 | 0.0 | 2.0 | 0.00 | 0.36 | 0.01 | 87 | 1021.3 |
| 20260902165051 | 63 | 202 | 0.0 | 2.0 | 0.00 | 0.36 | 0.01 | 86 | 1021.3 |
| 20260902164525 | 63 | 202 | 0.0 | 1.0 | 0.00 | 0.36 | 0.01 | 85 | 1021.2 |
| 20260902164043 | 63 | 202 | 0.0 | 1.0 | 0.00 | 0.36 | 0.01 | 87 | 1021.2 |
| 20260902163546 | 63 | 136 | 0.0 | 2.0 | 0.00 | 0.36 | 0.01 | 87 | 1021.2 |
| 20260902163050 | 63 | 135 | 1.0 | 2.0 | 0.00 | 0.36 | 0.01 | 85 | 1021.2 |
| 20260902162533 | 63 | 105 | 0.0 | 1.0 | 0.00 | 0.36 | 0.01 | 88 | 1021.2 |
| 20260902162036 | 63 | 86 | 0.0 | 1.0 | 0.00 | 0.36 | 0.01 | 88 | 1021.2 |
| 20260902161558 | 63 | 87 | 0.0 | 2.0 | 0.00 | 0.36 | 0.01 | 87 | 1021.2 |
| 20260902161026 | 63 | 88 | 0.0 | 2.0 | 0.00 | 0.36 | 0.01 | 87 | 1021.4 |
| 20260902160530 | 62 | 67 | 0.0 | 2.0 | 0.00 | 0.36 | 0.01 | 85 | 1021.4 |
| 20260902160032 | 62 | 128 | 1.0 | 2.0 | 0.00 | 0.36 | 0.01 | 84 | 1021.3 |
| 20260902155613 | 62 | 127 | 1.0 | 2.0 | 0.00 | 0.36 | 0.01 | 85 | 1021.3 |
| 20260902155055 | 62 | 109 | 0.0 | 2.0 | 0.00 | 0.36 | 0.01 | 88 | 1021.3 |
| 20260902154540 | 62 | 109 | 0.0 | 2.0 | 0.00 | 0.36 | 0.01 | 89 | 1021.3 |
| 20260902154039 | 62 | 111 | 1.0 | 3.0 | 0.00 | 0.36 | 0.01 | 88 | 1021.3 |
| 20260902153527 | 62 | 121 | 1.0 | 3.0 | 0.00 | 0.36 | 0.01 | 88 | 1021.3 |
| 20260902153028 | 62 | 341 | 0.0 | 2.0 | 0.00 | 0.36 | 0.01 | 89 | 1021.3 |
| 20260902152533 | 62 | 341 | 1.0 | 2.0 | 0.00 | 0.36 | 0.01 | 90 | 1021.4 |